Swinomish — WC5223 — position and weather

sailwx.info

Track history (hours):
 
Tides and Currents Weather Stations Pressure Air Temp Water Temp Dewpoint Dewpoint Depression Visibility Wind Speed Wind Dir Waves Ship Positions

Swinomish

More information available from US FCC via Universal Licensing System and Coast Guard Vessel Documentation Center.

Last reported at 2014-Jul-30 08:33 UTC. Time now 2014-Jul-30 09:10 UTC.
Position N 47°59' W 122°13'.

Length 15 m; draft 3.5 m.

Type: Tug. MMSI: 366972050.

Date/timePositionNaut miles runAvg speedWind from/ knotsBaromVisibWave heightAir tempDewpointWater temp
2014-Jul-30 08:33N 47°59' W 122°13'0 0.0
2014-Jul-30 07:33N 47°59' W 122°13'0 0.0
2014-Jul-30 06:33N 47°59' W 122°13'0 0.0
2014-Jul-30 05:33N 47°59' W 122°13'0 0.0
2014-Jul-30 04:33N 47°59' W 122°13'0 0.0
2014-Jul-30 03:33N 47°59' W 122°13'1 1.0
2014-Jul-30 02:33N 47°59' W 122°15'6 5.9
2014-Jul-30 01:33N 47°55' W 122°21'7 6.9
2014-Jul-30 00:33N 47°56' W 122°31'14 6.6
2014-Jul-29 22:27N 48°06' W 122°46'8 8.6
2014-Jul-29 21:33N 48°11' W 122°54'1211.8
2014-Jul-29 20:31N 48°11' W 123°12'1010.1
2014-Jul-29 19:34N 48°08' W 123°26'1 1.1
2014-Jul-29 18:32N 48°08' W 123°27'0 0.0
2014-Jul-29 17:33N 48°08' W 123°27'0 0.0
2014-Jul-29 16:33N 48°08' W 123°27'0 0.0
2014-Jul-29 15:33N 48°08' W 123°27'0 0.0
2014-Jul-29 14:34N 48°08' W 123°27'0 0.0
2014-Jul-29 13:33N 48°08' W 123°27'0 0.0
2014-Jul-29 12:33N 48°08' W 123°27'0 0.0
2014-Jul-29 11:34N 48°08' W 123°27'0 0.0
2014-Jul-29 10:33N 48°08' W 123°27'0 0.0
2014-Jul-29 09:33N 48°08' W 123°27'0 0.0
2014-Jul-29 08:34N 48°08' W 123°27'0 0.0
2014-Jul-29 07:33N 48°08' W 123°27'0 0.0
2014-Jul-29 06:33N 48°08' W 123°27'0 0.0
2014-Jul-29 05:33N 48°08' W 123°27'0 0.0
2014-Jul-29 04:34N 48°08' W 123°27'0 0.0
2014-Jul-29 03:34N 48°08' W 123°27'0 0.0
2014-Jul-29 02:33N 48°08' W 123°27'0 0.0
2014-Jul-29 01:33N 48°08' W 123°27'0 0.0
2014-Jul-29 00:33N 48°08' W 123°27'0 0.0
2014-Jul-28 23:34N 48°08' W 123°27'0 0.0
2014-Jul-28 22:34N 48°08' W 123°27'0 0.0
2014-Jul-28 21:34N 48°08' W 123°27'0 0.0
2014-Jul-28 20:34N 48°08' W 123°27'0 0.0
2014-Jul-28 19:34N 48°08' W 123°27'0 0.1
2014-Jul-28 18:33N 48°08' W 123°27'0 0.2
2014-Jul-28 17:33N 48°08' W 123°27'0 0.1
2014-Jul-28 16:30N 48°08' W 123°27'0 0.1
2014-Jul-28 15:29N 48°08' W 123°27'0 0.1
2014-Jul-28 14:29N 48°08' W 123°27'1 1.1
2014-Jul-28 13:33N 48°08' W 123°26'5 4.6
2014-Jul-28 12:32N 48°08' W 123°19'8 3.6
2014-Jul-28 10:24N 48°11' W 123°08'5 2.6
2014-Jul-28 08:22N 48°09' W 123°01'7 2.6
2014-Jul-28 05:33N 48°09' W 122°50'11 5.5
2014-Jul-28 03:30N 48°01' W 122°39'5 5.6
2014-Jul-28 02:33N 47°56' W 122°34'5 5.0
2014-Jul-28 01:34N 47°53' W 122°29'5 5.2
2014-Jul-28 00:33N 47°55' W 122°22'6 5.5
2014-Jul-27 23:32N 47°58' W 122°15'1 1.4
2014-Jul-27 22:33N 47°59' W 122°13'0 0.0
2014-Jul-27 21:34N 47°59' W 122°13'0 0.0
2014-Jul-27 20:33N 47°59' W 122°13'0 0.0
2014-Jul-27 19:34N 47°59' W 122°13'0 0.0
2014-Jul-27 18:34N 47°59' W 122°13'0 0.0
2014-Jul-27 17:33N 47°59' W 122°13'0 0.0
2014-Jul-27 16:33N 47°59' W 122°13'0 0.0
2014-Jul-27 15:33N 47°59' W 122°13'0 0.0
2014-Jul-27 14:33N 47°59' W 122°13'0 0.0
2014-Jul-27 13:34N 47°59' W 122°13'0 0.0
2014-Jul-27 12:33N 47°59' W 122°13'0 0.0
2014-Jul-27 11:33N 47°59' W 122°13'6 6.5
2014-Jul-27 10:34N 47°55' W 122°21'1010.3
2014-Jul-27 09:33N 47°46' W 122°27'1110.7
2014-Jul-27 08:33N 47°35' W 122°28'1111.3
2014-Jul-27 07:33N 47°24' W 122°32'4 3.9
2014-Jul-27 06:33N 47°20' W 122°33'7 7.1
2014-Jul-27 05:33N 47°13' W 122°35'10 1.4
2014-Jul-26 22:33N 47°11' W 122°50'7 1.7
2014-Jul-26 18:33N 47°11' W 122°40'2 1.4
2014-Jul-26 17:27N 47°12' W 122°38'3 0.3
2014-Jul-26 09:33N 47°14' W 122°35'3 3.2
2014-Jul-26 08:33N 47°17' W 122°33'2 2.1
2014-Jul-26 07:32N 47°19' W 122°33'2 1.6
2014-Jul-26 06:27N 47°19' W 122°30'1 1.4
2014-Jul-26 05:32N 47°18' W 122°29'0 0.5
2014-Jul-26 04:33N 47°17' W 122°29'1 0.8
2014-Jul-26 03:33N 47°18' W 122°30'0 0.4
2014-Jul-26 02:33N 47°18' W 122°29'1 1.0
2014-Jul-26 01:33N 47°17' W 122°28'1 1.4
2014-Jul-26 00:31N 47°17' W 122°26'1 0.7
2014-Jul-25 23:31N 47°17' W 122°25'1 1.0
2014-Jul-25 22:33N 47°18' W 122°27'2 1.5
2014-Jul-25 21:33N 47°19' W 122°26'2 2.2
2014-Jul-25 20:33N 47°20' W 122°24'2 2.0
2014-Jul-25 19:33N 47°22' W 122°22'2 2.1
2014-Jul-25 18:33N 47°24' W 122°23'2 1.7
2014-Jul-25 17:33N 47°25' W 122°25'2 1.6
2014-Jul-25 16:34N 47°27' W 122°26'1 1.2
2014-Jul-25 15:33N 47°28' W 122°26'1 0.9
2014-Jul-25 14:33N 47°29' W 122°26'1 1.2
2014-Jul-25 13:31N 47°30' W 122°27'1 1.2
2014-Jul-25 12:33N 47°31' W 122°27'1 1.2
2014-Jul-25 11:32N 47°32' W 122°28'1 1.3
2014-Jul-25 10:33N 47°33' W 122°29'1 1.5
2014-Jul-25 09:33N 47°35' W 122°28'2 1.6
2014-Jul-25 08:33N 47°36' W 122°29'1 1.4
2014-Jul-25 07:33N 47°38' W 122°29'2 1.5
2014-Jul-25 06:33N 47°39' W 122°29'1 1.1
2014-Jul-25 05:33N 47°40' W 122°30'1 1.1
2014-Jul-25 04:33N 47°41' W 122°30'1 1.0
2014-Jul-25 03:33N 47°42' W 122°30'1 1.1
2014-Jul-25 02:33N 47°43' W 122°29'1 1.1
2014-Jul-25 01:33N 47°44' W 122°28'1 0.9
2014-Jul-25 00:33N 47°45' W 122°28'1 1.3
2014-Jul-24 23:33N 47°46' W 122°27'2 1.7
2014-Jul-24 22:33N 47°48' W 122°26'2 2.0
2014-Jul-24 21:33N 47°49' W 122°24'2 1.9
2014-Jul-24 20:33N 47°51' W 122°22'2 1.7
2014-Jul-24 19:33N 47°52' W 122°21'1 1.3
2014-Jul-24 18:33N 47°54' W 122°21'1 1.1
2014-Jul-24 17:33N 47°55' W 122°20'1 1.5
2014-Jul-24 16:33N 47°56' W 122°20'1 1.5
2014-Jul-24 15:33N 47°57' W 122°19'2 1.6
2014-Jul-24 14:33N 47°58' W 122°17'2 2.0
2014-Jul-24 13:33N 47°59' W 122°14'1 0.8
2014-Jul-24 12:33N 47°59' W 122°13'0 0.0
2014-Jul-24 11:33N 47°59' W 122°13'0 0.0
2014-Jul-24 10:33N 47°59' W 122°13'0 0.0
2014-Jul-24 09:33N 47°59' W 122°13'0 0.0
2014-Jul-24 08:33N 47°59' W 122°13'0 0.0
2014-Jul-24 07:33N 47°59' W 122°13'0 0.0
2014-Jul-24 06:33N 47°59' W 122°13'0 0.0
2014-Jul-24 05:33N 47°59' W 122°13'0 0.0
2014-Jul-24 04:33N 47°59' W 122°13'0 0.0
2014-Jul-24 03:33N 47°59' W 122°13'0 0.0
2014-Jul-24 02:33N 47°59' W 122°13'0 0.0
2014-Jul-24 01:33N 47°59' W 122°13'0 0.0
2014-Jul-24 00:33N 47°59' W 122°13'0 0.3
2014-Jul-23 23:33N 47°59' W 122°13'1 1.4
2014-Jul-23 22:33N 47°58' W 122°15'1 1.3
2014-Jul-23 21:33N 47°58' W 122°17'2 1.7
2014-Jul-23 20:33N 47°59' W 122°14'1 0.9
2014-Jul-23 19:33N 47°59' W 122°13'0 0.0
2014-Jul-23 18:33N 47°59' W 122°13'0 0.0
2014-Jul-23 17:33N 47°59' W 122°13'0 0.0
2014-Jul-23 16:33N 47°59' W 122°13'0 0.2
2014-Jul-23 15:33N 47°59' W 122°13'0 0.1
2014-Jul-23 14:33N 47°59' W 122°13'0 0.1
2014-Jul-23 13:33N 47°59' W 122°13'0 0.1
2014-Jul-23 12:33N 47°59' W 122°13'0 0.2
2014-Jul-23 11:33N 47°59' W 122°13'0 0.3
2014-Jul-23 10:33N 47°59' W 122°13'1 1.0
2014-Jul-23 09:33N 47°58' W 122°15'2 1.7
2014-Jul-23 08:33N 47°60' W 122°16'2 1.8
2014-Jul-23 07:33N 48°01' W 122°18'2 1.8
2014-Jul-23 06:28N 48°02' W 122°20'2 2.0
2014-Jul-23 05:30N 48°03' W 122°23'2 2.0
2014-Jul-23 04:33N 48°04' W 122°25'11 1.8
2014-Jul-22 22:16N 48°14' W 122°33'1 1.4
2014-Jul-22 21:32N 48°15' W 122°33'1 1.0
2014-Jul-22 20:31N 48°16' W 122°32'1 1.2
2014-Jul-22 19:33N 48°17' W 122°31'1 1.3
2014-Jul-22 18:32N 48°18' W 122°30'2 1.6
2014-Jul-22 17:32N 48°19' W 122°31'3 2.9
2014-Jul-22 16:30N 48°22' W 122°34'3 3.0
2014-Jul-22 15:25N 48°25' W 122°35'2 2.2
2014-Jul-22 14:33N 48°24' W 122°38'1 1.0
2014-Jul-22 13:32N 48°24' W 122°40'0 0.3
2014-Jul-22 12:33N 48°25' W 122°40'0 0.3
2014-Jul-22 11:32N 48°25' W 122°40'2 1.6
2014-Jul-22 10:33N 48°26' W 122°42'2 2.4
2014-Jul-22 09:33N 48°28' W 122°43'2 2.0
2014-Jul-22 08:33N 48°30' W 122°44'1 1.5
2014-Jul-22 07:33N 48°31' W 122°46'1 1.3
2014-Jul-22 06:33N 48°32' W 122°48'1 0.9
2014-Jul-22 05:33N 48°32' W 122°49'1 0.6
2014-Jul-22 04:33N 48°32' W 122°50'0 0.5
2014-Jul-22 03:33N 48°32' W 122°50'1 1.0
2014-Jul-22 02:33N 48°33' W 122°51'1 1.5
2014-Jul-22 01:33N 48°34' W 122°52'1 1.4
2014-Jul-22 00:33N 48°35' W 122°54'2 1.8
2014-Jul-21 23:33N 48°35' W 122°56'2 1.6
2014-Jul-21 22:33N 48°36' W 122°59'1 1.2
2014-Jul-21 21:33N 48°35' W 123°00'1 0.9
2014-Jul-21 20:33N 48°36' W 123°00'0 0.0
2014-Jul-21 20:18N 48°36' W 123°00'0 0.0
2014-Jul-21 19:33N 48°36' W 123°00'0 0.0
2014-Jul-21 18:33N 48°36' W 123°00'0 0.0
2014-Jul-21 17:33N 48°36' W 123°00'0 0.0
2014-Jul-21 16:33N 48°36' W 123°00'0 0.0
2014-Jul-21 15:33N 48°36' W 123°00'0 0.0
2014-Jul-21 14:33N 48°36' W 123°00'0 0.0
2014-Jul-21 13:33N 48°36' W 123°00'0 0.0
2014-Jul-21 12:33N 48°36' W 123°00'0 0.0
2014-Jul-21 11:33N 48°36' W 123°00'0 0.0
2014-Jul-21 10:33N 48°36' W 123°00'0 0.0
2014-Jul-21 09:33N 48°36' W 123°00'0 0.0
2014-Jul-21 08:33N 48°36' W 123°00'0 0.0
2014-Jul-21 07:06N 48°36' W 123°00'0 0.1
2014-Jul-21 06:33N 48°36' W 123°00'0 0.0
2014-Jul-21 05:33N 48°36' W 123°00'0 0.0
2014-Jul-21 04:33N 48°36' W 123°00'0 0.0
2014-Jul-21 03:33N 48°36' W 123°00'0 0.1
2014-Jul-21 02:33N 48°36' W 123°00'0 0.0
2014-Jul-21 01:33N 48°36' W 123°00'0 0.2
2014-Jul-21 00:33N 48°36' W 123°01'1 1.2
2014-Jul-20 23:33N 48°37' W 123°02'2 1.8
2014-Jul-20 22:33N 48°39' W 123°01'1 1.4
2014-Jul-20 21:33N 48°40' W 122°60'2 1.6
2014-Jul-20 20:33N 48°42' W 122°60'2 1.6
2014-Jul-20 19:33N 48°43' W 123°00'1 1.1
2014-Jul-20 18:33N 48°44' W 123°00'2 2.2
2014-Jul-20 17:33N 48°44' W 123°03'3 2.6
2014-Jul-20 16:33N 48°43' W 123°07'1 1.4
2014-Jul-20 15:33N 48°43' W 123°09'1 0.7
2014-Jul-20 14:33N 48°44' W 123°08'1 1.1
2014-Jul-20 13:33N 48°45' W 123°09'2 1.7
2014-Jul-20 12:32N 48°46' W 123°12'2 1.6
2014-Jul-20 11:33N 48°47' W 123°13'1 1.1
2014-Jul-20 10:33N 48°47' W 123°15'0 0.2
2014-Jul-20 09:33N 48°47' W 123°14'0 0.0
2014-Jul-20 08:33N 48°47' W 123°14'  
Track history (hours):
 
Tides and Currents Weather Stations Pressure Air Temp Water Temp Dewpoint Dewpoint Depression Visibility Wind Speed Wind Dir Waves Ship Positions

Swinomish

More information available from US FCC via Universal Licensing System and Coast Guard Vessel Documentation Center.

Last reported at 2014-Jul-30 08:33 UTC. Time now 2014-Jul-30 09:10 UTC.
Position N 47°59' W 122°13'.

Length 15 m; draft 3.5 m.

Type: Tug. MMSI: 366972050.

Date/timePositionNaut miles runAvg speedWind from/ knotsBaromVisibWave heightAir tempDewpointWater temp
2014-Jul-30 08:33N 47°59' W 122°13'0 0.0
2014-Jul-30 07:33N 47°59' W 122°13'0 0.0
2014-Jul-30 06:33N 47°59' W 122°13'0 0.0
2014-Jul-30 05:33N 47°59' W 122°13'0 0.0
2014-Jul-30 04:33N 47°59' W 122°13'0 0.0
2014-Jul-30 03:33N 47°59' W 122°13'1 1.0
2014-Jul-30 02:33N 47°59' W 122°15'6 5.9
2014-Jul-30 01:33N 47°55' W 122°21'7 6.9
2014-Jul-30 00:33N 47°56' W 122°31'14 6.6
2014-Jul-29 22:27N 48°06' W 122°46'8 8.6
2014-Jul-29 21:33N 48°11' W 122°54'1211.8
2014-Jul-29 20:31N 48°11' W 123°12'1010.1
2014-Jul-29 19:34N 48°08' W 123°26'1 1.1
2014-Jul-29 18:32N 48°08' W 123°27'0 0.0
2014-Jul-29 17:33N 48°08' W 123°27'0 0.0
2014-Jul-29 16:33N 48°08' W 123°27'0 0.0
2014-Jul-29 15:33N 48°08' W 123°27'0 0.0
2014-Jul-29 14:34N 48°08' W 123°27'0 0.0
2014-Jul-29 13:33N 48°08' W 123°27'0 0.0
2014-Jul-29 12:33N 48°08' W 123°27'0 0.0
2014-Jul-29 11:34N 48°08' W 123°27'0 0.0
2014-Jul-29 10:33N 48°08' W 123°27'0 0.0
2014-Jul-29 09:33N 48°08' W 123°27'0 0.0
2014-Jul-29 08:34N 48°08' W 123°27'0 0.0
2014-Jul-29 07:33N 48°08' W 123°27'0 0.0
2014-Jul-29 06:33N 48°08' W 123°27'0 0.0
2014-Jul-29 05:33N 48°08' W 123°27'0 0.0
2014-Jul-29 04:34N 48°08' W 123°27'0 0.0
2014-Jul-29 03:34N 48°08' W 123°27'0 0.0
2014-Jul-29 02:33N 48°08' W 123°27'0 0.0
2014-Jul-29 01:33N 48°08' W 123°27'0 0.0
2014-Jul-29 00:33N 48°08' W 123°27'0 0.0
2014-Jul-28 23:34N 48°08' W 123°27'0 0.0
2014-Jul-28 22:34N 48°08' W 123°27'0 0.0
2014-Jul-28 21:34N 48°08' W 123°27'0 0.0
2014-Jul-28 20:34N 48°08' W 123°27'0 0.0
2014-Jul-28 19:34N 48°08' W 123°27'0 0.1
2014-Jul-28 18:33N 48°08' W 123°27'0 0.2
2014-Jul-28 17:33N 48°08' W 123°27'0 0.1
2014-Jul-28 16:30N 48°08' W 123°27'0 0.1
2014-Jul-28 15:29N 48°08' W 123°27'0 0.1
2014-Jul-28 14:29N 48°08' W 123°27'1 1.1
2014-Jul-28 13:33N 48°08' W 123°26'5 4.6
2014-Jul-28 12:32N 48°08' W 123°19'8 3.6
2014-Jul-28 10:24N 48°11' W 123°08'5 2.6
2014-Jul-28 08:22N 48°09' W 123°01'7 2.6
2014-Jul-28 05:33N 48°09' W 122°50'11 5.5
2014-Jul-28 03:30N 48°01' W 122°39'5 5.6
2014-Jul-28 02:33N 47°56' W 122°34'5 5.0
2014-Jul-28 01:34N 47°53' W 122°29'5 5.2
2014-Jul-28 00:33N 47°55' W 122°22'6 5.5
2014-Jul-27 23:32N 47°58' W 122°15'1 1.4
2014-Jul-27 22:33N 47°59' W 122°13'0 0.0
2014-Jul-27 21:34N 47°59' W 122°13'0 0.0
2014-Jul-27 20:33N 47°59' W 122°13'0 0.0
2014-Jul-27 19:34N 47°59' W 122°13'0 0.0
2014-Jul-27 18:34N 47°59' W 122°13'0 0.0
2014-Jul-27 17:33N 47°59' W 122°13'0 0.0
2014-Jul-27 16:33N 47°59' W 122°13'0 0.0
2014-Jul-27 15:33N 47°59' W 122°13'0 0.0
2014-Jul-27 14:33N 47°59' W 122°13'0 0.0
2014-Jul-27 13:34N 47°59' W 122°13'0 0.0
2014-Jul-27 12:33N 47°59' W 122°13'0 0.0
2014-Jul-27 11:33N 47°59' W 122°13'6 6.5
2014-Jul-27 10:34N 47°55' W 122°21'1010.3
2014-Jul-27 09:33N 47°46' W 122°27'1110.7
2014-Jul-27 08:33N 47°35' W 122°28'1111.3
2014-Jul-27 07:33N 47°24' W 122°32'4 3.9
2014-Jul-27 06:33N 47°20' W 122°33'7 7.1
2014-Jul-27 05:33N 47°13' W 122°35'10 1.4
2014-Jul-26 22:33N 47°11' W 122°50'7 1.7
2014-Jul-26 18:33N 47°11' W 122°40'2 1.4
2014-Jul-26 17:27N 47°12' W 122°38'3 0.3
2014-Jul-26 09:33N 47°14' W 122°35'3 3.2
2014-Jul-26 08:33N 47°17' W 122°33'2 2.1
2014-Jul-26 07:32N 47°19' W 122°33'2 1.6
2014-Jul-26 06:27N 47°19' W 122°30'1 1.4
2014-Jul-26 05:32N 47°18' W 122°29'0 0.5
2014-Jul-26 04:33N 47°17' W 122°29'1 0.8
2014-Jul-26 03:33N 47°18' W 122°30'0 0.4
2014-Jul-26 02:33N 47°18' W 122°29'1 1.0
2014-Jul-26 01:33N 47°17' W 122°28'1 1.4
2014-Jul-26 00:31N 47°17' W 122°26'1 0.7
2014-Jul-25 23:31N 47°17' W 122°25'1 1.0
2014-Jul-25 22:33N 47°18' W 122°27'2 1.5
2014-Jul-25 21:33N 47°19' W 122°26'2 2.2
2014-Jul-25 20:33N 47°20' W 122°24'2 2.0
2014-Jul-25 19:33N 47°22' W 122°22'2 2.1
2014-Jul-25 18:33N 47°24' W 122°23'2 1.7
2014-Jul-25 17:33N 47°25' W 122°25'2 1.6
2014-Jul-25 16:34N 47°27' W 122°26'1 1.2
2014-Jul-25 15:33N 47°28' W 122°26'1 0.9
2014-Jul-25 14:33N 47°29' W 122°26'1 1.2
2014-Jul-25 13:31N 47°30' W 122°27'1 1.2
2014-Jul-25 12:33N 47°31' W 122°27'1 1.2
2014-Jul-25 11:32N 47°32' W 122°28'1 1.3
2014-Jul-25 10:33N 47°33' W 122°29'1 1.5
2014-Jul-25 09:33N 47°35' W 122°28'2 1.6
2014-Jul-25 08:33N 47°36' W 122°29'1 1.4
2014-Jul-25 07:33N 47°38' W 122°29'2 1.5
2014-Jul-25 06:33N 47°39' W 122°29'1 1.1
2014-Jul-25 05:33N 47°40' W 122°30'1 1.1
2014-Jul-25 04:33N 47°41' W 122°30'1 1.0
2014-Jul-25 03:33N 47°42' W 122°30'1 1.1
2014-Jul-25 02:33N 47°43' W 122°29'1 1.1
2014-Jul-25 01:33N 47°44' W 122°28'1 0.9
2014-Jul-25 00:33N 47°45' W 122°28'1 1.3
2014-Jul-24 23:33N 47°46' W 122°27'2 1.7
2014-Jul-24 22:33N 47°48' W 122°26'2 2.0
2014-Jul-24 21:33N 47°49' W 122°24'2 1.9
2014-Jul-24 20:33N 47°51' W 122°22'2 1.7
2014-Jul-24 19:33N 47°52' W 122°21'1 1.3
2014-Jul-24 18:33N 47°54' W 122°21'1 1.1
2014-Jul-24 17:33N 47°55' W 122°20'1 1.5
2014-Jul-24 16:33N 47°56' W 122°20'1 1.5
2014-Jul-24 15:33N 47°57' W 122°19'2 1.6
2014-Jul-24 14:33N 47°58' W 122°17'2 2.0
2014-Jul-24 13:33N 47°59' W 122°14'1 0.8
2014-Jul-24 12:33N 47°59' W 122°13'0 0.0
2014-Jul-24 11:33N 47°59' W 122°13'0 0.0
2014-Jul-24 10:33N 47°59' W 122°13'0 0.0
2014-Jul-24 09:33N 47°59' W 122°13'0 0.0
2014-Jul-24 08:33N 47°59' W 122°13'0 0.0
2014-Jul-24 07:33N 47°59' W 122°13'0 0.0
2014-Jul-24 06:33N 47°59' W 122°13'0 0.0
2014-Jul-24 05:33N 47°59' W 122°13'0 0.0
2014-Jul-24 04:33N 47°59' W 122°13'0 0.0
2014-Jul-24 03:33N 47°59' W 122°13'0 0.0
2014-Jul-24 02:33N 47°59' W 122°13'0 0.0
2014-Jul-24 01:33N 47°59' W 122°13'0 0.0
2014-Jul-24 00:33N 47°59' W 122°13'0 0.3
2014-Jul-23 23:33N 47°59' W 122°13'1 1.4
2014-Jul-23 22:33N 47°58' W 122°15'1 1.3
2014-Jul-23 21:33N 47°58' W 122°17'2 1.7
2014-Jul-23 20:33N 47°59' W 122°14'1 0.9
2014-Jul-23 19:33N 47°59' W 122°13'0 0.0
2014-Jul-23 18:33N 47°59' W 122°13'0 0.0
2014-Jul-23 17:33N 47°59' W 122°13'0 0.0
2014-Jul-23 16:33N 47°59' W 122°13'0 0.2
2014-Jul-23 15:33N 47°59' W 122°13'0 0.1
2014-Jul-23 14:33N 47°59' W 122°13'0 0.1
2014-Jul-23 13:33N 47°59' W 122°13'0 0.1
2014-Jul-23 12:33N 47°59' W 122°13'0 0.2
2014-Jul-23 11:33N 47°59' W 122°13'0 0.3
2014-Jul-23 10:33N 47°59' W 122°13'1 1.0
2014-Jul-23 09:33N 47°58' W 122°15'2 1.7
2014-Jul-23 08:33N 47°60' W 122°16'2 1.8
2014-Jul-23 07:33N 48°01' W 122°18'2 1.8
2014-Jul-23 06:28N 48°02' W 122°20'2 2.0
2014-Jul-23 05:30N 48°03' W 122°23'2 2.0
2014-Jul-23 04:33N 48°04' W 122°25'11 1.8
2014-Jul-22 22:16N 48°14' W 122°33'1 1.4
2014-Jul-22 21:32N 48°15' W 122°33'1 1.0
2014-Jul-22 20:31N 48°16' W 122°32'1 1.2
2014-Jul-22 19:33N 48°17' W 122°31'1 1.3
2014-Jul-22 18:32N 48°18' W 122°30'2 1.6
2014-Jul-22 17:32N 48°19' W 122°31'3 2.9
2014-Jul-22 16:30N 48°22' W 122°34'3 3.0
2014-Jul-22 15:25N 48°25' W 122°35'2 2.2
2014-Jul-22 14:33N 48°24' W 122°38'1 1.0
2014-Jul-22 13:32N 48°24' W 122°40'0 0.3
2014-Jul-22 12:33N 48°25' W 122°40'0 0.3
2014-Jul-22 11:32N 48°25' W 122°40'2 1.6
2014-Jul-22 10:33N 48°26' W 122°42'2 2.4
2014-Jul-22 09:33N 48°28' W 122°43'2 2.0
2014-Jul-22 08:33N 48°30' W 122°44'1 1.5
2014-Jul-22 07:33N 48°31' W 122°46'1 1.3
2014-Jul-22 06:33N 48°32' W 122°48'1 0.9
2014-Jul-22 05:33N 48°32' W 122°49'1 0.6
2014-Jul-22 04:33N 48°32' W 122°50'0 0.5
2014-Jul-22 03:33N 48°32' W 122°50'1 1.0
2014-Jul-22 02:33N 48°33' W 122°51'1 1.5
2014-Jul-22 01:33N 48°34' W 122°52'1 1.4
2014-Jul-22 00:33N 48°35' W 122°54'2 1.8
2014-Jul-21 23:33N 48°35' W 122°56'2 1.6
2014-Jul-21 22:33N 48°36' W 122°59'1 1.2
2014-Jul-21 21:33N 48°35' W 123°00'1 0.9
2014-Jul-21 20:33N 48°36' W 123°00'0 0.0
2014-Jul-21 20:18N 48°36' W 123°00'0 0.0
2014-Jul-21 19:33N 48°36' W 123°00'0 0.0
2014-Jul-21 18:33N 48°36' W 123°00'0 0.0
2014-Jul-21 17:33N 48°36' W 123°00'0 0.0
2014-Jul-21 16:33N 48°36' W 123°00'0 0.0
2014-Jul-21 15:33N 48°36' W 123°00'0 0.0
2014-Jul-21 14:33N 48°36' W 123°00'0 0.0
2014-Jul-21 13:33N 48°36' W 123°00'0 0.0
2014-Jul-21 12:33N 48°36' W 123°00'0 0.0
2014-Jul-21 11:33N 48°36' W 123°00'0 0.0
2014-Jul-21 10:33N 48°36' W 123°00'0 0.0
2014-Jul-21 09:33N 48°36' W 123°00'0 0.0
2014-Jul-21 08:33N 48°36' W 123°00'0 0.0
2014-Jul-21 07:06N 48°36' W 123°00'0 0.1
2014-Jul-21 06:33N 48°36' W 123°00'0 0.0
2014-Jul-21 05:33N 48°36' W 123°00'0 0.0
2014-Jul-21 04:33N 48°36' W 123°00'0 0.0
2014-Jul-21 03:33N 48°36' W 123°00'0 0.1
2014-Jul-21 02:33N 48°36' W 123°00'0 0.0
2014-Jul-21 01:33N 48°36' W 123°00'0 0.2
2014-Jul-21 00:33N 48°36' W 123°01'1 1.2
2014-Jul-20 23:33N 48°37' W 123°02'2 1.8
2014-Jul-20 22:33N 48°39' W 123°01'1 1.4
2014-Jul-20 21:33N 48°40' W 122°60'2 1.6
2014-Jul-20 20:33N 48°42' W 122°60'2 1.6
2014-Jul-20 19:33N 48°43' W 123°00'1 1.1
2014-Jul-20 18:33N 48°44' W 123°00'2 2.2
2014-Jul-20 17:33N 48°44' W 123°03'3 2.6
2014-Jul-20 16:33N 48°43' W 123°07'1 1.4
2014-Jul-20 15:33N 48°43' W 123°09'1 0.7
2014-Jul-20 14:33N 48°44' W 123°08'1 1.1
2014-Jul-20 13:33N 48°45' W 123°09'2 1.7
2014-Jul-20 12:32N 48°46' W 123°12'2 1.6
2014-Jul-20 11:33N 48°47' W 123°13'1 1.1
2014-Jul-20 10:33N 48°47' W 123°15'0 0.2
2014-Jul-20 09:33N 48°47' W 123°14'0 0.0
2014-Jul-20 08:33N 48°47' W 123°14'  

Dump ship's entire track history